TimeEST,TemperatureF,Dew PointF,Humidity,Sea Level PressureIn,VisibilityMPH,Wind Direction,Wind SpeedMPH,Gust SpeedMPH,PrecipitationIn,Events,Conditions,WindDirDegrees,DateUTC
12:44 AM,19.4,5.0,54,30.17,10.0,North,6.9,-,N/A,Snow,Light Snow,10,2013-01-24 05:44:00
12:55 AM,19.6,6.8,58,30.16,10.0,North,8.1,-,0.00,Snow,Light Snow,350,2013-01-24 05:55:00
1:16 AM,19.4,6.8,58,30.16,10.0,North,8.1,-,N/A,,Overcast,360,2013-01-24 06:16:00
1:17 AM,19.4,6.8,58,30.16,10.0,North,8.1,-,N/A,,Light Freezing Drizzle,360,2013-01-24 06:17:00
1:51 AM,17.6,10.4,73,30.16,4.0,NNE,8.1,-,N/A,Snow,Light Snow,20,2013-01-24 06:51:00
1:55 AM,18.1,11.5,75,30.16,3.0,NNE,6.9,-,0.00,Snow,Light Snow,30,2013-01-24 06:55:00
2:06 AM,17.6,12.2,79,30.16,2.5,North,5.8,-,N/A,Snow,Light Snow,10,2013-01-24 07:06:00
2:13 AM,17.6,14.0,86,30.15,3.0,North,4.6,-,N/A,Snow,Light Snow,10,2013-01-24 07:13:00
2:55 AM,17.4,14.9,90,30.13,4.0,NNE,4.6,-,0.00,Snow,Light Snow,30,2013-01-24 07:55:00
3:55 AM,17.4,13.3,84,30.12,6.0,North,8.1,-,0.00,Snow,Light Snow,10,2013-01-24 08:55:00
4:06 AM,17.6,12.2,79,30.12,10.0,North,8.1,-,N/A,Snow,Light Snow,360,2013-01-24 09:06:00
4:10 AM,17.6,12.2,79,30.12,10.0,North,6.9,-,N/A,,Overcast,360,2013-01-24 09:10:00
4:11 AM,17.6,12.2,79,30.12,10.0,North,8.1,-,N/A,,Light Freezing Drizzle,360,2013-01-24 09:11:00
4:40 AM,17.6,10.4,73,30.12,10.0,North,9.2,-,N/A,,Partly Cloudy,360,2013-01-24 09:40:00
4:55 AM,18.1,9.7,70,30.12,10.0,North,9.2,-,0.00,,Scattered Clouds,360,2013-01-24 09:55:00
5:55 AM,17.6,8.2,67,30.15,10.0,North,12.7,-,N/A,,Overcast,360,2013-01-24 10:55:00
6:55 AM,17.1,9.7,73,30.18,10.0,North,12.7,-,N/A,,Overcast,360,2013-01-24 11:55:00
7:55 AM,15.6,10.4,80,30.21,10.0,NW,8.1,-,N/A,,Partly Cloudy,320,2013-01-24 12:55:00
8:55 AM,18.3,10.6,72,30.24,10.0,NNW,11.5,-,N/A,,Clear,330,2013-01-24 13:55:00
9:55 AM,20.7,8.6,60,30.27,10.0,NW,11.5,-,N/A,,Clear,320,2013-01-24 14:55:00
10:55 AM,23.0,7.7,52,30.29,10.0,NNW,13.8,20.7,N/A,,Clear,330,2013-01-24 15:55:00
11:55 AM,23.9,5.9,46,30.30,10.0,NNW,18.4,25.3,N/A,,Scattered Clouds,330,2013-01-24 16:55:00
12:55 PM,25.9,5.7,42,30.31,10.0,WNW,21.9,26.5,N/A,,Scattered Clouds,300,2013-01-24 17:55:00
1:55 PM,25.7,8.2,48,30.31,10.0,NNW,19.6,25.3,N/A,,Scattered Clouds,340,2013-01-24 18:55:00
2:55 PM,26.1,2.3,36,30.34,10.0,NW,20.7,27.6,N/A,,Partly Cloudy,310,2013-01-24 19:55:00
3:55 PM,26.1,-1.8,30,30.37,10.0,NW,18.4,25.3,N/A,,Clear,310,2013-01-24 20:55:00
4:55 PM,24.4,-2.6,31,30.40,10.0,NNW,17.3,-,N/A,,Clear,330,2013-01-24 21:55:00
5:55 PM,21.9,-0.8,37,30.43,10.0,NW,9.2,-,N/A,,Clear,320,2013-01-24 22:55:00
6:55 PM,21.0,-0.0,40,30.45,10.0,WNW,6.9,-,N/A,,Clear,290,2013-01-24 23:55:00
7:55 PM,20.7,0.9,42,30.47,10.0,WNW,8.1,-,N/A,,Clear,300,2013-01-25 00:55:00
8:55 PM,20.3,1.8,45,30.47,10.0,WNW,6.9,-,N/A,,Clear,290,2013-01-25 01:55:00
9:55 PM,18.7,3.6,52,30.48,10.0,West,6.9,-,N/A,,Clear,260,2013-01-25 02:55:00
10:55 PM,19.6,3.9,51,30.48,10.0,West,8.1,-,N/A,,Clear,280,2013-01-25 03:55:00
11:55 PM,18.5,4.1,54,30.49,10.0,West,5.8,-,N/A,,Clear,270,2013-01-25 04:55:00